Location: Kervinic
(48.4279°N, 4.7373°W)
Time: 21:48:42
(UTC+00:00)

Cosmos 468 Rocket - Pass Details

Date: 09 April 2020
Orbit: 745 x 779 km, 74.0° (Epoch: 23 May)

Event Time Altitude Azimuth Distance (km) Brightness Sun altitude
Rises 20:32:28 0° 339° (NNW) 3,221 8.1 -14.7°
Reaches altitude 10° 20:34:55 10° 345° (NNW) 2,287 7.1 -15.1°
Maximum altitude 20:39:59 53° 62° (ENE) 921 4.2 -15.8°
Enters shadow 20:42:35 27° 127° (SE) 1,414 4.8 -16.1°
